Showing default

GREB, 731

Orbit data source: Space-Track

GREB, 731 is an American payload satellite in LEO that was launched on Sat, 11 Jan 1964 UTC via a THOR SLV-2A AGENA D launch vehicle from the Air Force Western Test Range (AFWTR). Payload-class satellites include a variety of spacecraft equipped with specific instruments for various scientific and technological missions. These include communications satellites like Starlink; space stations such as the ISS; scientific satellites like the Hubble; Earth observation satellites from companies like Planet Labs, Umbra, and HawkEye 360; GPS; miniature CubeSats for education and research; and military/defense satellites.

Loading next visibility...
Identifier
731, 1964-001E
Orbit
LEO
Country
Flag of USUS
Related business
Manufacturer
NRL
Mission
Defense Sigint
Bus & Motor
NRL 20", Unknown motor
Mass
29 kg wet, 29 kg dry
Launch date (UTC)
1964-01-11 (62 years ago)
Launch vehicle
THOR SLV-2A AGENA D
Launch site
Air Force Western Test Range (AFWTR)
Object type
Payload
Rocket body
Debris
Shape & HBR
Sphere, 0.3 m
Radar Cross Section
0.196 m², Medium (>0.1 m² and < 1m²)

Expand to show TLE details & history
Last TLE update: 22 hours ago

TLE from 22 hours ago
0 GREB
1 00731U 64001E   25260.06049790  .00000016  00000-0  50827-4 0  9995
2 00731  69.9051 133.8775 0013369   7.5186 352.6117 13.96250837139457
Epoch: 2025-09-17T01:27Z
TLE epoch observation values (Epoch: 2025-09-17T01:27:07.018Z)
Latitude
-0.00002°
Longitude
115.85638°
Altitude
899.453 km
Speed
7.408 km/s
True Right ascension
08h 55m 30s
True Declination
0° 00' 00"
Sunlit
Object was in daylight at epoch
Visualization orbit readout
Latitude
Unknown
Longitude
Unknown
Altitude
Unknown
Speed
Unknown
Apparent Right ascension
Unknown
Apparent Declination
Unknown
Sunlit
N/A
Visualization observer readout
Local Sidereal Time
16:05:55
Azimuth
Unknown
Elevation
Unknown
Doppler factor
Unknown
Orbital elements
Apogee altitude
914.596 km
Perigee altitude
895.123 km
Semi-major axis
7,282.996 km
Eccentricity
0.00134
Inclination
69.9051°
RAAN
133.8775°
Arg. of periapsis
7.5186°
True anomaly
352.59197°
Mean anomaly
352.6117°
Eccentric anomaly
352.60184°
Mean motion
3.49203 °/min
Orbital period
103.09 mins
BSTAR
0.000050827
Loading maneuver chart data...
Computing Atmospheric mass density...
Loading historical data...
Loading historical data...
Loading historical data...
Loading historical data...
Loading historical data...
Loading historical data...
Loading historical data...
Other satellites on launch #1 in the year 1964 (1964-01-11 UTC)

Documentation

Showing up to 5 results
|